PRIVATE WETTERSTATION BILLIGHEIM-ALLFELD                       ZURCK
Wetterdaten: Donnerstag, 11.09.2014
Datum Zeit Temp. A. Temp. A. min Temp. A. max Feuchte A. Luftdruck Regen Wind Richtung Richtung Sonnenschein ET Solar Taupunkt Windchill Windben Empfang
11.09.2014 00:00 10,9 C 10,9 C 11,0 C 86 % 1015,7 hPa 0,0 l/m 0,0 km/h (0 Bft) N 0 0 min 0,000 mm 0 W/m 8,7 C 10,9 C 0,0 km/h (0 Bft) 100 %
11.09.2014 00:10 10,8 C 10,8 C 10,9 C 86 % 1015,6 hPa 0,0 l/m 0,0 km/h (0 Bft) N 0 0 min 0,000 mm 0 W/m 8,6 C 10,8 C 0,0 km/h (0 Bft) 100 %
11.09.2014 00:20 10,6 C 10,6 C 10,8 C 87 % 1015,7 hPa 0,0 l/m 0,0 km/h (0 Bft) N 0 0 min 0,000 mm 0 W/m 8,5 C 10,6 C 0,0 km/h (0 Bft) 100 %
11.09.2014 00:30 10,5 C 10,5 C 10,6 C 87 % 1015,6 hPa 0,0 l/m 0,0 km/h (0 Bft) N 0 0 min 0,000 mm 0 W/m 8,4 C 10,5 C 0,0 km/h (0 Bft) 99 %
11.09.2014 00:40 10,5 C 10,5 C 10,5 C 87 % 1015,7 hPa 0,0 l/m 0,0 km/h (0 Bft) N 0 0 min 0,000 mm 0 W/m 8,4 C 10,5 C 0,0 km/h (0 Bft) 100 %
11.09.2014 00:50 10,5 C 10,4 C 10,5 C 87 % 1015,5 hPa 0,0 l/m 0,0 km/h (0 Bft) N 0 0 min 0,000 mm 0 W/m 8,4 C 10,5 C 0,0 km/h (0 Bft) 99 %
11.09.2014 01:00 10,5 C 10,4 C 10,5 C 87 % 1015,5 hPa 0,0 l/m 0,0 km/h (0 Bft) N 0 0 min 0,000 mm 0 W/m 8,4 C 10,5 C 0,0 km/h (0 Bft) 100 %
11.09.2014 01:10 10,4 C 10,4 C 10,5 C 87 % 1015,5 hPa 0,0 l/m 0,0 km/h (0 Bft) W-NW 292 0 min 0,000 mm 0 W/m 8,3 C 10,4 C 1,6 km/h (1 Bft) 100 %
11.09.2014 01:20 10,3 C 10,3 C 10,4 C 87 % 1015,4 hPa 0,0 l/m 0,0 km/h (0 Bft) W-NW 292 0 min 0,000 mm 0 W/m 8,2 C 10,3 C 1,6 km/h (1 Bft) 100 %
11.09.2014 01:30 10,2 C 10,2 C 10,3 C 87 % 1015,6 hPa 0,0 l/m 0,0 km/h (0 Bft) N 0 0 min 0,000 mm 0 W/m 8,1 C 10,2 C 0,0 km/h (0 Bft) 100 %
11.09.2014 01:40 10,1 C 10,1 C 10,2 C 87 % 1015,6 hPa 0,0 l/m 0,0 km/h (0 Bft) N 0 0 min 0,000 mm 0 W/m 8,0 C 10,1 C 0,0 km/h (0 Bft) 100 %
11.09.2014 01:50 10,0 C 10,0 C 10,1 C 87 % 1015,6 hPa 0,0 l/m 0,0 km/h (0 Bft) N 0 0 min 0,000 mm 0 W/m 7,9 C 10,0 C 0,0 km/h (0 Bft) 100 %
11.09.2014 02:00 9,9 C 9,9 C 10,0 C 87 % 1015,7 hPa 0,0 l/m 0,0 km/h (0 Bft) W-NW 292 0 min 0,000 mm 0 W/m 7,8 C 9,9 C 1,6 km/h (1 Bft) 100 %
11.09.2014 02:10 9,8 C 9,8 C 9,9 C 88 % 1015,7 hPa 0,0 l/m 0,0 km/h (0 Bft) W-NW 292 0 min 0,000 mm 0 W/m 7,9 C 9,8 C 1,6 km/h (1 Bft) 100 %
11.09.2014 02:20 9,7 C 9,7 C 9,8 C 88 % 1015,6 hPa 0,0 l/m 0,0 km/h (0 Bft) W-NW 292 0 min 0,000 mm 0 W/m 7,8 C 9,7 C 3,2 km/h (1 Bft) 100 %
11.09.2014 02:30 9,6 C 9,6 C 9,7 C 87 % 1015,7 hPa 0,0 l/m 0,0 km/h (0 Bft) W-NW 292 0 min 0,000 mm 0 W/m 7,5 C 9,6 C 1,6 km/h (1 Bft) 100 %
11.09.2014 02:40 9,5 C 9,5 C 9,6 C 88 % 1015,5 hPa 0,0 l/m 0,0 km/h (0 Bft) W-NW 292 0 min 0,000 mm 0 W/m 7,6 C 9,5 C 1,6 km/h (1 Bft) 100 %
11.09.2014 02:50 9,3 C 9,3 C 9,5 C 87 % 1015,5 hPa 0,0 l/m 0,0 km/h (0 Bft) W-NW 292 0 min 0,000 mm 0 W/m 7,2 C 9,3 C 1,6 km/h (1 Bft) 100 %
11.09.2014 03:00 9,1 C 9,1 C 9,3 C 88 % 1015,4 hPa 0,0 l/m 0,0 km/h (0 Bft) N 0 0 min 0,000 mm 0 W/m 7,2 C 9,1 C 0,0 km/h (0 Bft) 100 %
11.09.2014 03:10 8,9 C 8,9 C 9,1 C 88 % 1015,4 hPa 0,0 l/m 0,0 km/h (0 Bft) W-NW 292 0 min 0,000 mm 0 W/m 7,0 C 8,9 C 1,6 km/h (1 Bft) 100 %
11.09.2014 03:20 8,7 C 8,7 C 8,9 C 88 % 1015,2 hPa 0,0 l/m 0,0 km/h (0 Bft) N 0 0 min 0,000 mm 0 W/m 6,8 C 8,7 C 0,0 km/h (0 Bft) 100 %
11.09.2014 03:30 8,6 C 8,6 C 8,7 C 88 % 1015,2 hPa 0,0 l/m 0,0 km/h (0 Bft) N 0 0 min 0,000 mm 0 W/m 6,7 C 8,6 C 0,0 km/h (0 Bft) 100 %
11.09.2014 03:40 8,6 C 8,6 C 8,6 C 88 % 1015,1 hPa 0,0 l/m 0,0 km/h (0 Bft) N 0 0 min 0,000 mm 0 W/m 6,7 C 8,6 C 0,0 km/h (0 Bft) 100 %
11.09.2014 03:50 8,7 C 8,6 C 8,7 C 88 % 1015,1 hPa 0,0 l/m 0,0 km/h (0 Bft) N 0 0 min 0,000 mm 0 W/m 6,8 C 8,7 C 0,0 km/h (0 Bft) 100 %
11.09.2014 04:00 8,7 C 8,7 C 8,8 C 88 % 1015,1 hPa 0,0 l/m 0,0 km/h (0 Bft) W-NW 292 0 min 0,000 mm 0 W/m 6,8 C 8,7 C 1,6 km/h (1 Bft) 100 %
11.09.2014 04:10 8,8 C 8,8 C 8,8 C 88 % 1015,2 hPa 0,0 l/m 0,0 km/h (0 Bft) W-NW 292 0 min 0,000 mm 0 W/m 6,9 C 8,8 C 1,6 km/h (1 Bft) 100 %
11.09.2014 04:20 8,9 C 8,8 C 8,9 C 88 % 1015,0 hPa 0,0 l/m 0,0 km/h (0 Bft) W-NW 292 0 min 0,000 mm 0 W/m 7,0 C 8,9 C 3,2 km/h (1 Bft) 100 %
11.09.2014 04:30 9,0 C 8,9 C 9,0 C 88 % 1015,0 hPa 0,0 l/m 0,0 km/h (0 Bft) W-NW 292 0 min 0,000 mm 0 W/m 7,1 C 9,0 C 1,6 km/h (1 Bft) 100 %
11.09.2014 04:40 9,1 C 9,0 C 9,1 C 88 % 1015,0 hPa 0,0 l/m 0,0 km/h (0 Bft) N 0 0 min 0,000 mm 0 W/m 7,2 C 9,1 C 0,0 km/h (0 Bft) 91 %
11.09.2014 04:50 9,1 C 9,1 C 9,1 C 88 % 1015,0 hPa 0,0 l/m 0,0 km/h (0 Bft) N 0 0 min 0,000 mm 0 W/m 7,2 C 9,1 C 0,0 km/h (0 Bft) 100 %
11.09.2014 05:00 9,2 C 9,1 C 9,2 C 88 % 1015,0 hPa 0,0 l/m 0,0 km/h (0 Bft) N 0 0 min 0,000 mm 0 W/m 7,3 C 9,2 C 0,0 km/h (0 Bft) 100 %
11.09.2014 05:10 9,2 C 9,2 C 9,2 C 88 % 1014,9 hPa 0,0 l/m 0,0 km/h (0 Bft) W-NW 292 0 min 0,000 mm 0 W/m 7,3 C 9,2 C 1,6 km/h (1 Bft) 100 %
11.09.2014 05:20 9,2 C 9,2 C 9,2 C 88 % 1014,8 hPa 0,0 l/m 0,0 km/h (0 Bft) N 0 0 min 0,000 mm 0 W/m 7,3 C 9,2 C 0,0 km/h (0 Bft) 100 %
11.09.2014 05:30 9,1 C 9,1 C 9,2 C 88 % 1014,7 hPa 0,0 l/m 0,0 km/h (0 Bft) N 0 0 min 0,000 mm 0 W/m 7,2 C 9,1 C 0,0 km/h (0 Bft) 100 %
11.09.2014 05:40 8,9 C 8,9 C 9,1 C 88 % 1014,7 hPa 0,0 l/m 0,0 km/h (0 Bft) N 0 0 min 0,000 mm 0 W/m 7,0 C 8,9 C 0,0 km/h (0 Bft) 100 %
11.09.2014 05:50 8,8 C 8,8 C 8,9 C 88 % 1014,7 hPa 0,0 l/m 0,0 km/h (0 Bft) N 0 0 min 0,000 mm 0 W/m 6,9 C 8,8 C 0,0 km/h (0 Bft) 100 %
11.09.2014 06:00 8,7 C 8,7 C 8,8 C 88 % 1014,6 hPa 0,0 l/m 0,0 km/h (0 Bft) W-NW 292 0 min 0,000 mm 0 W/m 6,8 C 8,7 C 1,6 km/h (1 Bft) 100 %
11.09.2014 06:10 8,6 C 8,6 C 8,7 C 88 % 1014,6 hPa 0,0 l/m 0,0 km/h (0 Bft) N 0 0 min 0,000 mm 0 W/m 6,7 C 8,6 C 0,0 km/h (0 Bft) 100 %
11.09.2014 06:20 8,6 C 8,6 C 8,6 C 88 % 1014,6 hPa 0,0 l/m 0,0 km/h (0 Bft) N 0 0 min 0,000 mm 0 W/m 6,7 C 8,6 C 0,0 km/h (0 Bft) 100 %
11.09.2014 06:30 8,5 C 8,5 C 8,6 C 88 % 1014,4 hPa 0,0 l/m 0,0 km/h (0 Bft) N 0 0 min 0,000 mm 0 W/m 6,6 C 8,5 C 0,0 km/h (0 Bft) 99 %
11.09.2014 06:40 8,5 C 8,5 C 8,6 C 88 % 1014,4 hPa 0,0 l/m 0,0 km/h (0 Bft) N 0 0 min 0,000 mm 0 W/m 6,6 C 8,5 C 0,0 km/h (0 Bft) 100 %
11.09.2014 06:50 8,4 C 8,4 C 8,5 C 88 % 1014,6 hPa 0,0 l/m 0,0 km/h (0 Bft) W-NW 292 0 min 0,000 mm 0 W/m 6,5 C 8,4 C 1,6 km/h (1 Bft) 99 %
11.09.2014 07:00 8,3 C 8,3 C 8,4 C 88 % 1014,6 hPa 0,0 l/m 0,0 km/h (0 Bft) N 0 0 min 0,000 mm 5 W/m 6,4 C 8,3 C 0,0 km/h (0 Bft) 100 %
11.09.2014 07:10 8,3 C 8,3 C 8,3 C 88 % 1014,5 hPa 0,0 l/m 0,0 km/h (0 Bft) W-NW 292 0 min 0,000 mm 12 W/m 6,4 C 8,3 C 1,6 km/h (1 Bft) 100 %
11.09.2014 07:20 8,3 C 8,3 C 8,3 C 88 % 1014,6 hPa 0,0 l/m 0,0 km/h (0 Bft) W-NW 292 0 min 0,000 mm 19 W/m 6,4 C 8,3 C 3,2 km/h (1 Bft) 100 %
11.09.2014 07:30 8,4 C 8,3 C 8,4 C 88 % 1014,6 hPa 0,0 l/m 0,0 km/h (0 Bft) N 0 0 min 0,000 mm 21 W/m 6,5 C 8,4 C 0,0 km/h (0 Bft) 100 %
11.09.2014 07:40 8,6 C 8,4 C 8,6 C 88 % 1014,6 hPa 0,0 l/m 0,0 km/h (0 Bft) N 0 0 min 0,000 mm 28 W/m 6,7 C 8,6 C 0,0 km/h (0 Bft) 100 %
11.09.2014 07:50 8,8 C 8,6 C 8,8 C 88 % 1014,6 hPa 0,0 l/m 0,0 km/h (0 Bft) N 0 0 min 0,000 mm 28 W/m 6,9 C 8,8 C 0,0 km/h (0 Bft) 99 %
11.09.2014 08:00 9,0 C 8,8 C 9,0 C 88 % 1014,8 hPa 0,0 l/m 0,0 km/h (0 Bft) N 0 0 min 0,000 mm 30 W/m 7,1 C 9,0 C 0,0 km/h (0 Bft) 100 %
11.09.2014 08:10 9,2 C 9,0 C 9,2 C 88 % 1014,6 hPa 0,0 l/m 0,0 km/h (0 Bft) N 0 0 min 0,000 mm 42 W/m 7,3 C 9,2 C 0,0 km/h (0 Bft) 100 %
11.09.2014 08:20 9,3 C 9,2 C 9,3 C 88 % 1014,7 hPa 0,0 l/m 0,0 km/h (0 Bft) N 0 0 min 0,000 mm 40 W/m 7,4 C 9,3 C 0,0 km/h (0 Bft) 100 %
11.09.2014 08:30 9,6 C 9,3 C 9,6 C 88 % 1014,8 hPa 0,0 l/m 0,0 km/h (0 Bft) N 0 0 min 0,000 mm 35 W/m 7,7 C 9,6 C 0,0 km/h (0 Bft) 100 %
11.09.2014 08:40 9,7 C 9,6 C 9,7 C 88 % 1014,8 hPa 0,4 l/m 0,0 km/h (0 Bft) W 270 0 min 0,000 mm 35 W/m 7,8 C 9,7 C 1,6 km/h (1 Bft) 100 %
11.09.2014 08:50 9,9 C 9,7 C 9,9 C 88 % 1014,8 hPa 1,4 l/m 0,0 km/h (0 Bft) W 270 0 min 0,000 mm 32 W/m 8,0 C 9,9 C 1,6 km/h (1 Bft) 100 %
11.09.2014 09:00 10,0 C 9,9 C 10,0 C 88 % 1014,8 hPa 0,2 l/m 0,0 km/h (0 Bft) N 0 0 min 0,025 mm 44 W/m 8,1 C 10,0 C 0,0 km/h (0 Bft) 100 %
11.09.2014 09:10 10,2 C 10,0 C 10,2 C 88 % 1014,9 hPa 0,0 l/m 0,0 km/h (0 Bft) N 0 0 min 0,000 mm 47 W/m 8,3 C 10,2 C 0,0 km/h (0 Bft) 100 %
11.09.2014 09:20 10,3 C 10,2 C 10,3 C 88 % 1015,0 hPa 0,0 l/m 0,0 km/h (0 Bft) W 270 0 min 0,000 mm 83 W/m 8,4 C 10,3 C 3,2 km/h (1 Bft) 100 %
11.09.2014 09:30 10,3 C 10,3 C 10,3 C 88 % 1015,0 hPa 0,0 l/m 0,0 km/h (0 Bft) SW 225 10 min 0,000 mm 156 W/m 8,4 C 10,3 C 4,8 km/h (1 Bft) 100 %
11.09.2014 09:40 10,5 C 10,3 C 10,5 C 88 % 1015,1 hPa 0,0 l/m 0,0 km/h (0 Bft) SW 225 10 min 0,000 mm 176 W/m 8,6 C 10,5 C 4,8 km/h (1 Bft) 100 %
11.09.2014 09:50 10,8 C 10,5 C 10,8 C 88 % 1015,1 hPa 0,0 l/m 0,0 km/h (0 Bft) S-SW 202 10 min 0,000 mm 153 W/m 8,9 C 10,8 C 4,8 km/h (1 Bft) 100 %
11.09.2014 10:00 10,9 C 10,8 C 10,9 C 88 % 1015,1 hPa 0,0 l/m 0,0 km/h (0 Bft) S-SW 202 10 min 0,051 mm 156 W/m 9,0 C 10,9 C 1,6 km/h (1 Bft) 100 %
11.09.2014 10:10 11,1 C 10,9 C 11,1 C 88 % 1015,2 hPa 0,0 l/m 0,0 km/h (0 Bft) S-SW 202 10 min 0,000 mm 156 W/m 9,2 C 11,1 C 1,6 km/h (1 Bft) 90 %
11.09.2014 10:20 11,4 C 11,1 C 11,4 C 88 % 1015,2 hPa 0,0 l/m 0,0 km/h (0 Bft) S-SW 202 10 min 0,000 mm 155 W/m 9,5 C 11,4 C 1,6 km/h (1 Bft) 100 %
11.09.2014 10:30 11,6 C 11,4 C 11,6 C 88 % 1015,2 hPa 0,0 l/m 1,6 km/h (1 Bft) S-SO 157 10 min 0,000 mm 160 W/m 9,7 C 11,6 C 6,4 km/h (2 Bft) 100 %
11.09.2014 10:40 11,7 C 11,6 C 11,7 C 88 % 1015,2 hPa 0,0 l/m 0,0 km/h (0 Bft) S-SO 157 10 min 0,000 mm 185 W/m 9,8 C 11,7 C 3,2 km/h (1 Bft) 100 %
11.09.2014 10:50 11,8 C 11,7 C 11,8 C 88 % 1015,2 hPa 0,0 l/m 0,0 km/h (0 Bft) S-SO 157 10 min 0,000 mm 193 W/m 9,9 C 11,8 C 1,6 km/h (1 Bft) 100 %
11.09.2014 11:00 11,9 C 11,8 C 11,9 C 88 % 1015,2 hPa 0,0 l/m 0,0 km/h (0 Bft) S-SO 157 0 min 0,051 mm 113 W/m 10,0 C 11,9 C 4,8 km/h (1 Bft) 100 %
11.09.2014 11:10 12,1 C 11,9 C 12,1 C 88 % 1015,3 hPa 0,0 l/m 0,0 km/h (0 Bft) S-SO 157 10 min 0,000 mm 290 W/m 10,2 C 12,1 C 3,2 km/h (1 Bft) 100 %
11.09.2014 11:20 13,5 C 12,1 C 13,5 C 88 % 1015,2 hPa 0,0 l/m 0,0 km/h (0 Bft) S 180 10 min 0,000 mm 816 W/m 11,6 C 13,5 C 3,2 km/h (1 Bft) 99 %
11.09.2014 11:30 14,3 C 13,6 C 14,3 C 88 % 1015,2 hPa 0,0 l/m 1,6 km/h (1 Bft) W-SW 247 10 min 0,000 mm 828 W/m 12,3 C 14,3 C 6,4 km/h (2 Bft) 100 %
11.09.2014 11:40 14,3 C 14,3 C 14,3 C 88 % 1015,2 hPa 0,0 l/m 0,0 km/h (0 Bft) W-NW 292 10 min 0,000 mm 357 W/m 12,3 C 14,3 C 6,4 km/h (2 Bft) 100 %
11.09.2014 11:50 14,7 C 14,3 C 14,7 C 88 % 1015,2 hPa 0,0 l/m 0,0 km/h (0 Bft) W-NW 292 10 min 0,000 mm 935 W/m 12,7 C 14,7 C 6,4 km/h (2 Bft) 98 %
11.09.2014 12:00 14,5 C 14,5 C 14,7 C 87 % 1015,2 hPa 0,0 l/m 1,6 km/h (1 Bft) NW 315 10 min 0,203 mm 318 W/m 12,4 C 14,5 C 11,3 km/h (2 Bft) 100 %
11.09.2014 12:10 14,5 C 14,4 C 14,5 C 87 % 1015,1 hPa 0,0 l/m 1,6 km/h (1 Bft) NW 315 10 min 0,000 mm 360 W/m 12,4 C 14,5 C 9,7 km/h (2 Bft) 100 %
11.09.2014 12:20 14,6 C 14,5 C 14,6 C 87 % 1015,1 hPa 0,0 l/m 1,6 km/h (1 Bft) NW 315 10 min 0,000 mm 302 W/m 12,5 C 14,6 C 6,4 km/h (2 Bft) 100 %
11.09.2014 12:30 14,7 C 14,6 C 14,7 C 86 % 1015,0 hPa 0,0 l/m 1,6 km/h (1 Bft) N-NW 337 10 min 0,000 mm 334 W/m 12,4 C 14,7 C 8,0 km/h (2 Bft) 99 %
11.09.2014 12:40 15,1 C 14,7 C 15,1 C 85 % 1014,9 hPa 0,0 l/m 0,0 km/h (0 Bft) NW 315 10 min 0,000 mm 504 W/m 12,6 C 15,1 C 8,0 km/h (2 Bft) 99 %
11.09.2014 12:50 15,3 C 15,1 C 15,3 C 83 % 1014,8 hPa 0,0 l/m 0,0 km/h (0 Bft) NW 315 10 min 0,000 mm 673 W/m 12,4 C 15,3 C 4,8 km/h (1 Bft) 100 %
11.09.2014 13:00 15,9 C 15,3 C 15,9 C 84 % 1014,7 hPa 0,0 l/m 1,6 km/h (1 Bft) NW 315 10 min 0,203 mm 775 W/m 13,2 C 15,9 C 8,0 km/h (2 Bft) 99 %
11.09.2014 13:10 16,6 C 15,9 C 16,6 C 80 % 1014,5 hPa 0,0 l/m 1,6 km/h (1 Bft) NW 315 10 min 0,000 mm 860 W/m 13,1 C 16,6 C 8,0 km/h (2 Bft) 100 %
11.09.2014 13:20 17,3 C 16,6 C 17,3 C 75 % 1014,4 hPa 0,0 l/m 1,6 km/h (1 Bft) NW 315 10 min 0,000 mm 1032 W/m 12,8 C 17,3 C 6,4 km/h (2 Bft) 98 %
11.09.2014 13:30 17,7 C 17,3 C 17,7 C 75 % 1014,4 hPa 0,0 l/m 1,6 km/h (1 Bft) NW 315 10 min 0,000 mm 856 W/m 13,2 C 17,7 C 9,7 km/h (2 Bft) 100 %
11.09.2014 13:40 17,1 C 17,1 C 17,7 C 78 % 1014,7 hPa 0,0 l/m 4,8 km/h (1 Bft) NW 315 0 min 0,000 mm 77 W/m 13,2 C 17,1 C 20,9 km/h (4 Bft) 99 %
11.09.2014 13:50 16,1 C 16,1 C 17,1 C 79 % 1014,8 hPa 0,0 l/m 0,0 km/h (0 Bft) N-NW 337 0 min 0,000 mm 76 W/m 12,5 C 16,1 C 8,0 km/h (2 Bft) 100 %
11.09.2014 14:00 15,4 C 15,4 C 16,1 C 81 % 1014,8 hPa 0,0 l/m 0,0 km/h (0 Bft) O-SO 112 10 min 0,229 mm 207 W/m 12,2 C 15,4 C 4,8 km/h (1 Bft) 99 %
11.09.2014 14:10 15,1 C 15,1 C 15,4 C 81 % 1014,9 hPa 0,0 l/m 1,6 km/h (1 Bft) O 90 10 min 0,000 mm 216 W/m 11,9 C 15,1 C 6,4 km/h (2 Bft) 99 %
11.09.2014 14:20 15,1 C 15,1 C 15,1 C 82 % 1014,8 hPa 0,0 l/m 1,6 km/h (1 Bft) SO 135 10 min 0,000 mm 264 W/m 12,0 C 15,1 C 9,7 km/h (2 Bft) 100 %
11.09.2014 14:30 15,1 C 15,1 C 15,1 C 82 % 1014,8 hPa 0,0 l/m 0,0 km/h (0 Bft) W-NW 292 10 min 0,000 mm 229 W/m 12,0 C 15,1 C 4,8 km/h (1 Bft) 100 %
11.09.2014 14:40 15,1 C 15,1 C 15,1 C 80 % 1014,7 hPa 0,0 l/m 1,6 km/h (1 Bft) O-SO 112 10 min 0,000 mm 415 W/m 11,7 C 15,1 C 8,0 km/h (2 Bft) 100 %
11.09.2014 14:50 15,6 C 15,1 C 15,6 C 78 % 1014,8 hPa 0,0 l/m 0,0 km/h (0 Bft) O 90 10 min 0,000 mm 427 W/m 11,8 C 15,6 C 3,2 km/h (1 Bft) 99 %
11.09.2014 15:00 15,8 C 15,6 C 15,8 C 76 % 1014,8 hPa 0,0 l/m 0,0 km/h (0 Bft) NW 315 10 min 0,152 mm 374 W/m 11,6 C 15,8 C 6,4 km/h (2 Bft) 100 %
11.09.2014 15:10 15,8 C 15,8 C 15,9 C 75 % 1014,9 hPa 0,0 l/m 3,2 km/h (1 Bft) NW 315 10 min 0,000 mm 410 W/m 11,4 C 15,8 C 11,3 km/h (2 Bft) 100 %
11.09.2014 15:20 15,8 C 15,8 C 15,9 C 75 % 1014,9 hPa 0,0 l/m 4,8 km/h (1 Bft) N-NW 337 10 min 0,000 mm 619 W/m 11,4 C 15,8 C 12,9 km/h (3 Bft) 100 %
11.09.2014 15:30 15,4 C 15,4 C 15,8 C 75 % 1014,9 hPa 0,0 l/m 3,2 km/h (1 Bft) NW 315 10 min 0,000 mm 183 W/m 11,0 C 15,4 C 12,9 km/h (3 Bft) 100 %
11.09.2014 15:40 14,8 C 14,8 C 15,3 C 77 % 1014,8 hPa 0,0 l/m 4,8 km/h (1 Bft) NW 315 0 min 0,000 mm 86 W/m 10,8 C 14,8 C 19,3 km/h (3 Bft) 100 %
11.09.2014 15:50 14,3 C 14,3 C 14,8 C 80 % 1014,7 hPa 0,2 l/m 1,6 km/h (1 Bft) NW 315 0 min 0,000 mm 72 W/m 10,9 C 14,3 C 11,3 km/h (2 Bft) 100 %
11.09.2014 16:00 13,8 C 13,8 C 14,3 C 83 % 1014,9 hPa 0,2 l/m 0,0 km/h (0 Bft) NW 315 0 min 0,102 mm 107 W/m 11,0 C 13,8 C 1,6 km/h (1 Bft) 100 %
11.09.2014 16:10 13,6 C 13,6 C 13,8 C 85 % 1015,0 hPa 0,0 l/m 0,0 km/h (0 Bft) NW 315 10 min 0,000 mm 199 W/m 11,1 C 13,6 C 1,6 km/h (1 Bft) 100 %
11.09.2014 16:20 13,7 C 13,6 C 13,7 C 86 % 1015,0 hPa 0,0 l/m 0,0 km/h (0 Bft) NW 315 10 min 0,000 mm 218 W/m 11,4 C 13,7 C 6,4 km/h (2 Bft) 100 %
11.09.2014 16:30 13,9 C 13,7 C 13,9 C 85 % 1015,2 hPa 0,0 l/m 1,6 km/h (1 Bft) NW 315 10 min 0,000 mm 199 W/m 11,4 C 13,9 C 9,7 km/h (2 Bft) 100 %
11.09.2014 16:40 13,9 C 13,9 C 13,9 C 85 % 1015,2 hPa 0,0 l/m 0,0 km/h (0 Bft) N-NW 337 0 min 0,000 mm 113 W/m 11,4 C 13,9 C 1,6 km/h (1 Bft) 100 %
11.09.2014 16:50 14,0 C 13,9 C 14,0 C 86 % 1015,1 hPa 0,0 l/m 0,0 km/h (0 Bft) N-NW 337 0 min 0,000 mm 123 W/m 11,7 C 14,0 C 1,6 km/h (1 Bft) 100 %
11.09.2014 17:00 14,2 C 14,0 C 14,2 C 85 % 1015,1 hPa 0,0 l/m 0,0 km/h (0 Bft) N-NW 337 0 min 0,076 mm 118 W/m 11,7 C 14,2 C 4,8 km/h (1 Bft) 100 %
11.09.2014 17:10 14,4 C 14,2 C 14,4 C 84 % 1015,0 hPa 0,0 l/m 0,0 km/h (0 Bft) W-NW 292 0 min 0,000 mm 120 W/m 11,7 C 14,4 C 4,8 km/h (1 Bft) 100 %
11.09.2014 17:20 14,9 C 14,2 C 14,9 C 83 % 1014,9 hPa 0,0 l/m 0,0 km/h (0 Bft) W-NW 299 0 min 0,000 mm 135 W/m 12,0 C 14,9 C 1,6 km/h (1 Bft) 100 %
11.09.2014 17:30 15,1 C 14,9 C 15,1 C 81 % 1015,1 hPa 0,0 l/m 2,0 km/h (1 Bft) NW 326 0 min 0,000 mm 127 W/m 11,9 C 15,1 C 9,7 km/h (2 Bft) 100 %
11.09.2014 17:40 15,3 C 15,1 C 15,3 C 82 % 1015,0 hPa 0,0 l/m 3,2 km/h (1 Bft) NW 307 0 min 0,000 mm 134 W/m 12,2 C 15,3 C 11,3 km/h (2 Bft) 100 %
11.09.2014 17:50 15,5 C 15,3 C 15,5 C 80 % 1015,1 hPa 0,0 l/m 3,6 km/h (1 Bft) NW 320 0 min 0,000 mm 72 W/m 12,1 C 15,5 C 11,3 km/h (2 Bft) 100 %
11.09.2014 18:00 15,3 C 15,3 C 15,5 C 81 % 1015,2 hPa 0,0 l/m 3,4 km/h (1 Bft) N-NW 329 0 min 0,076 mm 86 W/m 12,1 C 15,3 C 9,7 km/h (2 Bft) 100 %
11.09.2014 18:10 15,1 C 15,1 C 15,3 C 82 % 1015,2 hPa 0,0 l/m 2,3 km/h (1 Bft) NW 325 0 min 0,000 mm 88 W/m 12,0 C 15,1 C 9,7 km/h (2 Bft) 100 %
11.09.2014 18:20 15,2 C 15,1 C 15,2 C 82 % 1015,3 hPa 0,0 l/m 3,3 km/h (1 Bft) NW 322 10 min 0,000 mm 153 W/m 12,1 C 15,2 C 9,7 km/h (2 Bft) 100 %
11.09.2014 18:30 15,2 C 15,2 C 15,2 C 80 % 1015,3 hPa 0,0 l/m 2,6 km/h (1 Bft) W-NW 298 0 min 0,000 mm 100 W/m 11,8 C 15,2 C 14,5 km/h (3 Bft) 100 %
11.09.2014 18:40 15,1 C 15,1 C 15,2 C 80 % 1015,6 hPa 0,0 l/m 0,6 km/h (0 Bft) NO 55 0 min 0,000 mm 56 W/m 11,7 C 15,1 C 8,0 km/h (2 Bft) 100 %
11.09.2014 18:50 14,8 C 14,8 C 15,1 C 79 % 1015,7 hPa 0,0 l/m 0,1 km/h (0 Bft) W-NW 286 0 min 0,000 mm 23 W/m 11,2 C 14,8 C 4,8 km/h (1 Bft) 100 %
11.09.2014 19:00 14,3 C 14,3 C 14,8 C 79 % 1015,8 hPa 0,0 l/m 0,0 km/h (0 Bft) W-NW 286 0 min 0,051 mm 11 W/m 10,7 C 14,3 C 0,0 km/h (0 Bft) 100 %
11.09.2014 19:10 13,8 C 13,8 C 14,3 C 80 % 1015,7 hPa 0,2 l/m 0,0 km/h (0 Bft) W-NW 286 0 min 0,000 mm 14 W/m 10,4 C 13,8 C 0,0 km/h (0 Bft) 100 %
11.09.2014 19:20 13,3 C 13,3 C 13,8 C 83 % 1015,6 hPa 0,0 l/m 0,0 km/h (0 Bft) W-NW 285 0 min 0,000 mm 12 W/m 10,5 C 13,3 C 0,0 km/h (0 Bft) 99 %
11.09.2014 19:30 12,9 C 12,9 C 13,3 C 85 % 1015,6 hPa 0,0 l/m 0,0 km/h (0 Bft) W-NW 286 0 min 0,000 mm 9 W/m 10,4 C 12,9 C 0,0 km/h (0 Bft) 100 %
11.09.2014 19:40 12,7 C 12,7 C 12,9 C 85 % 1015,6 hPa 0,0 l/m 0,0 km/h (0 Bft) W-NW 286 0 min 0,000 mm 5 W/m 10,2 C 12,7 C 0,0 km/h (0 Bft) 100 %
11.09.2014 19:50 12,3 C 12,3 C 12,7 C 86 % 1015,7 hPa 0,0 l/m 0,0 km/h (0 Bft) W-NW 286 0 min 0,000 mm 0 W/m 10,0 C 12,3 C 0,0 km/h (0 Bft) 100 %
11.09.2014 20:00 12,1 C 12,1 C 12,3 C 86 % 1015,8 hPa 0,0 l/m 0,0 km/h (0 Bft) W-NW 286 0 min 0,000 mm 0 W/m 9,8 C 12,1 C 0,0 km/h (0 Bft) 100 %
11.09.2014 20:10 11,8 C 11,8 C 12,1 C 87 % 1016,0 hPa 0,0 l/m 0,0 km/h (0 Bft) W-NW 286 0 min 0,000 mm 0 W/m 9,7 C 11,8 C 1,6 km/h (1 Bft) 100 %
11.09.2014 20:20 11,7 C 11,7 C 11,8 C 87 % 1016,3 hPa 0,0 l/m 0,0 km/h (0 Bft) W-NW 286 0 min 0,000 mm 0 W/m 9,6 C 11,7 C 1,6 km/h (1 Bft) 100 %
11.09.2014 20:30 11,6 C 11,6 C 11,7 C 87 % 1016,4 hPa 0,0 l/m 0,0 km/h (0 Bft) W-NW 286 0 min 0,000 mm 0 W/m 9,5 C 11,6 C 0,0 km/h (0 Bft) 99 %
11.09.2014 20:40 11,5 C 11,5 C 11,6 C 87 % 1016,5 hPa 0,0 l/m 0,0 km/h (0 Bft) W-NW 286 0 min 0,000 mm 0 W/m 9,4 C 11,5 C 0,0 km/h (0 Bft) 100 %
11.09.2014 20:50 11,5 C 11,5 C 11,5 C 87 % 1016,6 hPa 0,0 l/m 0,0 km/h (0 Bft) W-NW 286 0 min 0,000 mm 0 W/m 9,4 C 11,5 C 0,0 km/h (0 Bft) 100 %
11.09.2014 21:00 11,5 C 11,5 C 11,6 C 87 % 1016,7 hPa 0,2 l/m 0,0 km/h (0 Bft) W-NW 286 0 min 0,000 mm 0 W/m 9,4 C 11,5 C 0,0 km/h (0 Bft) 100 %
11.09.2014 21:10 11,5 C 11,5 C 11,6 C 87 % 1016,7 hPa 0,0 l/m 0,0 km/h (0 Bft) N 0 0 min 0,000 mm 0 W/m 9,4 C 11,5 C 0,0 km/h (0 Bft) 99 %
11.09.2014 21:20 11,4 C 11,4 C 11,5 C 87 % 1016,7 hPa 0,0 l/m 0,0 km/h (0 Bft) N 0 0 min 0,000 mm 0 W/m 9,3 C 11,4 C 0,0 km/h (0 Bft) 100 %
11.09.2014 21:30 11,3 C 11,3 C 11,4 C 88 % 1016,8 hPa 0,0 l/m 0,0 km/h (0 Bft) N 0 0 min 0,000 mm 0 W/m 9,4 C 11,3 C 0,0 km/h (0 Bft) 100 %
11.09.2014 21:40 11,3 C 11,3 C 11,3 C 88 % 1016,8 hPa 0,0 l/m 0,0 km/h (0 Bft) N 0 0 min 0,000 mm 0 W/m 9,4 C 11,3 C 0,0 km/h (0 Bft) 100 %
11.09.2014 21:50 11,3 C 11,3 C 11,3 C 88 % 1016,9 hPa 0,0 l/m 0,0 km/h (0 Bft) W-NW 292 0 min 0,000 mm 0 W/m 9,4 C 11,3 C 1,6 km/h (1 Bft) 100 %
11.09.2014 22:00 11,3 C 11,3 C 11,3 C 88 % 1016,8 hPa 0,0 l/m 0,0 km/h (0 Bft) N 0 0 min 0,000 mm 0 W/m 9,4 C 11,3 C 0,0 km/h (0 Bft) 100 %
11.09.2014 22:10 11,3 C 11,3 C 11,3 C 88 % 1016,9 hPa 0,0 l/m 0,0 km/h (0 Bft) N 0 0 min 0,000 mm 0 W/m 9,4 C 11,3 C 0,0 km/h (0 Bft) 100 %
11.09.2014 22:20 11,3 C 11,3 C 11,4 C 88 % 1017,1 hPa 0,0 l/m 0,0 km/h (0 Bft) W-NW 292 0 min 0,000 mm 0 W/m 9,4 C 11,3 C 1,6 km/h (1 Bft) 100 %
11.09.2014 22:30 11,4 C 11,3 C 11,4 C 88 % 1017,1 hPa 0,0 l/m 0,0 km/h (0 Bft) W-NW 292 0 min 0,000 mm 0 W/m 9,5 C 11,4 C 1,6 km/h (1 Bft) 100 %
11.09.2014 22:40 11,3 C 11,3 C 11,4 C 88 % 1017,2 hPa 0,0 l/m 0,0 km/h (0 Bft) N 0 0 min 0,000 mm 0 W/m 9,4 C 11,3 C 0,0 km/h (0 Bft) 100 %
11.09.2014 22:50 11,3 C 11,3 C 11,3 C 88 % 1017,1 hPa 0,0 l/m 0,0 km/h (0 Bft) N 0 0 min 0,000 mm 0 W/m 9,4 C 11,3 C 0,0 km/h (0 Bft) 100 %
11.09.2014 23:00 11,2 C 11,2 C 11,3 C 88 % 1017,1 hPa 0,0 l/m 0,0 km/h (0 Bft) N 0 0 min 0,000 mm 0 W/m 9,3 C 11,2 C 0,0 km/h (0 Bft) 100 %
11.09.2014 23:10 11,1 C 11,1 C 11,2 C 88 % 1017,1 hPa 0,0 l/m 0,0 km/h (0 Bft) N 0 0 min 0,000 mm 0 W/m 9,2 C 11,1 C 0,0 km/h (0 Bft) 100 %
11.09.2014 23:20 10,9 C 10,9 C 11,1 C 88 % 1017,2 hPa 0,0 l/m 0,0 km/h (0 Bft) N 0 0 min 0,000 mm 0 W/m 9,0 C 10,9 C 0,0 km/h (0 Bft) 100 %
11.09.2014 23:30 10,9 C 10,9 C 11,0 C 88 % 1017,3 hPa 0,0 l/m 0,0 km/h (0 Bft) N 0 0 min 0,000 mm 0 W/m 9,0 C 10,9 C 0,0 km/h (0 Bft) 100 %
11.09.2014 23:40 11,0 C 10,9 C 11,0 C 88 % 1017,3 hPa 0,0 l/m 0,0 km/h (0 Bft) N 0 0 min 0,000 mm 0 W/m 9,1 C 11,0 C 0,0 km/h (0 Bft) 100 %
11.09.2014 23:50 11,1 C 11,0 C 11,1 C 88 % 1017,4 hPa 0,0 l/m 0,0 km/h (0 Bft) W-NW 292 0 min 0,000 mm 0 W/m 9,2 C 11,1 C 1,6 km/h (1 Bft) 100 %
_ Min-Zeit 07:00 07:00 07:10 13:20 06:30 - 00:00 - - - - - 07:00 07:00 00:00 10:10
Minimum _ 8,3 C 8,3 C 8,3 C 75 % 1014,4 hPa - 0,0 km/h (0 Bft) - - - - - 6,4 C 8,3 C 0,0 km/h (0 Bft) 90 %
_ Max-Zeit 13:30 13:30 13:30 02:10 23:50 08:50 13:40 - - 09:30 14:00 13:20 13:40 13:30 13:40 00:20
Maximum _ 17,7 C 17,3 C 17,7 C 88 % 1017,4 hPa 1,4 l/m 4,8 km/h
NW (1 Bft)
- - 10 min 0,229 mm 1032 W/m 13,2 C 17,7 C 20,9 km/h
NW (4 Bft)
100 %
Durchschnitt _ 11,8 C 11,7 C 11,9 C 86 % 1015,4 hPa #2,8 l/m 0,5 km/h (0 Bft) NW - #6:20 h #1,219 mm 224 W/m 9,5 C 11,8 C 3,1 km/h (1 Bft) 100 %
PRIVATE WETTERSTATION BILLIGHEIM-ALLFELD - www.neckar-odenwald-wetter.de - Holger Sonntag